Time,TemperatureF,DewpointF,PressureIn,WindDirection,WindDirectionDegrees,WindSpeedMPH,WindSpeedGustMPH,Humidity,HourlyPrecipIn,Conditions,Clouds,dailyrainin,SoftwareType,DateUTC
2013-01-02 00:01:00,15.6,10.8,29.72,North,-999,-999.0,-999.0,73,-99.99,,,-99.99,Homeseer,2013-01-02 05:01:00,
2013-01-02 00:03:00,15.6,10.6,29.72,North,-999,-999.0,-999.0,72,-99.99,,,-99.99,Homeseer,2013-01-02 05:03:00,
2013-01-02 00:08:00,15.2,10.4,29.72,North,-999,-999.0,-999.0,73,-99.99,,,-99.99,Homeseer,2013-01-02 05:08:00,
2013-01-02 00:13:00,15.1,10.3,29.72,North,-999,-999.0,-999.0,73,-99.99,,,-99.99,Homeseer,2013-01-02 05:13:00,
2013-01-02 00:18:00,14.8,10.0,29.72,North,-999,-999.0,-999.0,73,-99.99,,,-99.99,Homeseer,2013-01-02 05:18:00,
2013-01-02 00:22:00,14.8,10.2,29.72,North,-999,-999.0,-999.0,74,-99.99,,,-99.99,Homeseer,2013-01-02 05:22:00,
2013-01-02 00:27:00,14.8,10.2,29.72,North,-999,-999.0,-999.0,74,-99.99,,,-99.99,Homeseer,2013-01-02 05:27:00,
2013-01-02 00:32:00,14.6,9.8,29.72,North,-999,-999.0,-999.0,73,-99.99,,,-99.99,Homeseer,2013-01-02 05:32:00,
2013-01-02 00:37:00,14.3,9.5,29.73,North,-999,-999.0,-999.0,73,-99.99,,,-99.99,Homeseer,2013-01-02 05:37:00,
2013-01-02 00:42:00,14.2,9.6,29.73,North,-999,-999.0,-999.0,74,-99.99,,,-99.99,Homeseer,2013-01-02 05:42:00,
2013-01-02 00:47:00,14.2,9.4,29.72,North,-999,-999.0,-999.0,73,-99.99,,,-99.99,Homeseer,2013-01-02 05:47:00,
2013-01-02 00:52:00,13.8,9.2,29.72,North,-999,-999.0,-999.0,74,-99.99,,,-99.99,Homeseer,2013-01-02 05:52:00,
2013-01-02 00:57:00,13.8,9.2,29.72,North,-999,-999.0,-999.0,74,-99.99,,,-99.99,Homeseer,2013-01-02 05:57:00,
2013-01-02 01:02:00,13.7,9.1,29.72,North,-999,-999.0,-999.0,74,-99.99,,,-99.99,Homeseer,2013-01-02 06:02:00,
2013-01-02 01:07:00,13.6,9.0,29.72,North,-999,-999.0,-999.0,74,-99.99,,,-99.99,Homeseer,2013-01-02 06:07:00,
2013-01-02 01:12:00,13.3,9.0,29.73,North,-999,-999.0,-999.0,75,-99.99,,,-99.99,Homeseer,2013-01-02 06:12:00,
2013-01-02 01:17:00,13.1,8.8,29.73,North,-999,-999.0,-999.0,75,-99.99,,,-99.99,Homeseer,2013-01-02 06:17:00,
2013-01-02 01:22:00,12.9,8.6,29.73,North,-999,-999.0,-999.0,75,-99.99,,,-99.99,Homeseer,2013-01-02 06:22:00,
2013-01-02 01:27:00,12.6,8.7,29.73,North,-999,-999.0,-999.0,77,-99.99,,,-99.99,Homeseer,2013-01-02 06:27:00,
2013-01-02 01:32:00,12.6,8.5,29.73,North,-999,-999.0,-999.0,76,-99.99,,,-99.99,Homeseer,2013-01-02 06:32:00,
2013-01-02 01:37:00,12.4,8.3,29.74,North,-999,-999.0,-999.0,76,-99.99,,,-99.99,Homeseer,2013-01-02 06:37:00,
2013-01-02 01:42:00,12.3,8.4,29.75,North,-999,-999.0,-999.0,77,-99.99,,,-99.99,Homeseer,2013-01-02 06:42:00,
2013-01-02 01:47:00,12.2,8.3,29.75,North,-999,-999.0,-999.0,77,-99.99,,,-99.99,Homeseer,2013-01-02 06:47:00,
2013-01-02 01:52:00,12.0,8.3,29.75,North,-999,-999.0,-999.0,78,-99.99,,,-99.99,Homeseer,2013-01-02 06:52:00,
2013-01-02 01:57:00,12.0,8.1,29.75,North,-999,-999.0,-999.0,77,-99.99,,,-99.99,Homeseer,2013-01-02 06:57:00,
2013-01-02 02:02:00,11.8,7.9,29.75,North,-999,-999.0,-999.0,77,-99.99,,,-99.99,Homeseer,2013-01-02 07:02:00,
2013-01-02 02:07:00,11.8,8.1,29.75,North,-999,-999.0,-999.0,78,-99.99,,,-99.99,Homeseer,2013-01-02 07:07:00,
2013-01-02 02:12:00,11.8,8.1,29.75,North,-999,-999.0,-999.0,78,-99.99,,,-99.99,Homeseer,2013-01-02 07:12:00,
2013-01-02 02:17:00,11.9,7.8,29.76,North,-999,-999.0,-999.0,76,-99.99,,,-99.99,Homeseer,2013-01-02 07:17:00,
2013-01-02 02:22:00,11.9,7.8,29.76,North,-999,-999.0,-999.0,76,-99.99,,,-99.99,Homeseer,2013-01-02 07:22:00,
2013-01-02 02:27:00,11.5,7.8,29.75,North,-999,-999.0,-999.0,78,-99.99,,,-99.99,Homeseer,2013-01-02 07:27:00,
2013-01-02 02:32:00,11.5,7.6,29.75,North,-999,-999.0,-999.0,77,-99.99,,,-99.99,Homeseer,2013-01-02 07:32:00,
2013-01-02 02:37:00,11.8,7.9,29.75,North,-999,-999.0,-999.0,77,-99.99,,,-99.99,Homeseer,2013-01-02 07:37:00,
2013-01-02 02:42:00,11.8,7.9,29.76,North,-999,-999.0,-999.0,77,-99.99,,,-99.99,Homeseer,2013-01-02 07:42:00,
2013-01-02 02:47:00,11.8,7.5,29.76,North,-999,-999.0,-999.0,75,-99.99,,,-99.99,Homeseer,2013-01-02 07:47:00,
2013-01-02 02:52:00,11.4,7.5,29.76,North,-999,-999.0,-999.0,77,-99.99,,,-99.99,Homeseer,2013-01-02 07:52:00,
2013-01-02 02:57:00,11.3,7.4,29.77,North,-999,-999.0,-999.0,77,-99.99,,,-99.99,Homeseer,2013-01-02 07:57:00,
2013-01-02 03:02:00,11.3,7.6,29.77,North,-999,-999.0,-999.0,78,-99.99,,,-99.99,Homeseer,2013-01-02 08:02:00,
2013-01-02 03:07:00,11.3,7.4,29.76,North,-999,-999.0,-999.0,77,-99.99,,,-99.99,Homeseer,2013-01-02 08:07:00,
2013-01-02 03:12:00,11.3,7.6,29.76,North,-999,-999.0,-999.0,78,-99.99,,,-99.99,Homeseer,2013-01-02 08:12:00,
2013-01-02 03:17:00,11.2,7.5,29.75,North,-999,-999.0,-999.0,78,-99.99,,,-99.99,Homeseer,2013-01-02 08:17:00,
2013-01-02 03:22:00,11.4,7.5,29.75,North,-999,-999.0,-999.0,77,-99.99,,,-99.99,Homeseer,2013-01-02 08:22:00,
2013-01-02 03:27:00,11.3,7.6,29.75,North,-999,-999.0,-999.0,78,-99.99,,,-99.99,Homeseer,2013-01-02 08:27:00,
2013-01-02 03:32:00,11.4,7.5,29.75,North,-999,-999.0,-999.0,77,-99.99,,,-99.99,Homeseer,2013-01-02 08:32:00,
2013-01-02 03:37:00,11.3,7.6,29.74,North,-999,-999.0,-999.0,78,-99.99,,,-99.99,Homeseer,2013-01-02 08:37:00,
2013-01-02 03:42:00,11.4,7.5,29.73,North,-999,-999.0,-999.0,77,-99.99,,,-99.99,Homeseer,2013-01-02 08:42:00,
2013-01-02 03:47:00,11.4,7.5,29.74,North,-999,-999.0,-999.0,77,-99.99,,,-99.99,Homeseer,2013-01-02 08:47:00,
2013-01-02 03:52:00,11.5,7.6,29.74,North,-999,-999.0,-999.0,77,-99.99,,,-99.99,Homeseer,2013-01-02 08:52:00,
2013-01-02 03:57:00,11.4,7.5,29.73,North,-999,-999.0,-999.0,77,-99.99,,,-99.99,Homeseer,2013-01-02 08:57:00,
2013-01-02 04:02:00,11.3,7.4,29.73,North,-999,-999.0,-999.0,77,-99.99,,,-99.99,Homeseer,2013-01-02 09:02:00,
2013-01-02 04:07:00,11.4,7.5,29.73,North,-999,-999.0,-999.0,77,-99.99,,,-99.99,Homeseer,2013-01-02 09:07:00,
2013-01-02 04:12:00,11.3,7.6,29.73,North,-999,-999.0,-999.0,78,-99.99,,,-99.99,Homeseer,2013-01-02 09:12:00,
2013-01-02 04:17:00,11.3,7.6,29.73,North,-999,-999.0,-999.0,78,-99.99,,,-99.99,Homeseer,2013-01-02 09:17:00,
2013-01-02 04:22:00,11.3,7.6,29.72,North,-999,-999.0,-999.0,78,-99.99,,,-99.99,Homeseer,2013-01-02 09:22:00,
2013-01-02 04:27:00,11.3,7.6,29.72,North,-999,-999.0,-999.0,78,-99.99,,,-99.99,Homeseer,2013-01-02 09:27:00,
2013-01-02 04:32:00,11.2,7.5,29.72,North,-999,-999.0,-999.0,78,-99.99,,,-99.99,Homeseer,2013-01-02 09:32:00,
2013-01-02 04:37:00,11.4,7.7,29.72,North,-999,-999.0,-999.0,78,-99.99,,,-99.99,Homeseer,2013-01-02 09:37:00,
2013-01-02 04:42:00,11.3,7.6,29.72,North,-999,-999.0,-999.0,78,-99.99,,,-99.99,Homeseer,2013-01-02 09:42:00,
2013-01-02 04:47:00,11.3,7.6,29.72,North,-999,-999.0,-999.0,78,-99.99,,,-99.99,Homeseer,2013-01-02 09:47:00,
2013-01-02 04:52:00,11.2,7.3,29.71,North,-999,-999.0,-999.0,77,-99.99,,,-99.99,Homeseer,2013-01-02 09:52:00,
2013-01-02 04:57:00,11.0,7.3,29.72,North,-999,-999.0,-999.0,78,-99.99,,,-99.99,Homeseer,2013-01-02 09:57:00,
2013-01-02 05:02:00,11.1,7.4,29.72,North,-999,-999.0,-999.0,78,-99.99,,,-99.99,Homeseer,2013-01-02 10:02:00,
2013-01-02 05:07:00,11.1,7.4,29.72,North,-999,-999.0,-999.0,78,-99.99,,,-99.99,Homeseer,2013-01-02 10:07:00,
2013-01-02 05:12:00,11.0,7.7,29.72,North,-999,-999.0,-999.0,80,-99.99,,,-99.99,Homeseer,2013-01-02 10:12:00,
2013-01-02 05:17:00,11.2,7.7,29.73,North,-999,-999.0,-999.0,79,-99.99,,,-99.99,Homeseer,2013-01-02 10:17:00,
2013-01-02 05:22:00,11.3,7.8,29.73,North,-999,-999.0,-999.0,79,-99.99,,,-99.99,Homeseer,2013-01-02 10:22:00,
2013-01-02 05:27:00,11.2,7.7,29.73,North,-999,-999.0,-999.0,79,-99.99,,,-99.99,Homeseer,2013-01-02 10:27:00,
2013-01-02 05:32:00,11.2,7.7,29.72,North,-999,-999.0,-999.0,79,-99.99,,,-99.99,Homeseer,2013-01-02 10:32:00,
2013-01-02 05:37:00,11.4,7.9,29.72,North,-999,-999.0,-999.0,79,-99.99,,,-99.99,Homeseer,2013-01-02 10:37:00,
2013-01-02 05:42:00,11.5,8.0,29.72,North,-999,-999.0,-999.0,79,-99.99,,,-99.99,Homeseer,2013-01-02 10:42:00,
2013-01-02 05:47:00,11.4,8.1,29.72,North,-999,-999.0,-999.0,80,-99.99,,,-99.99,Homeseer,2013-01-02 10:47:00,
2013-01-02 05:52:00,11.6,8.3,29.72,North,-999,-999.0,-999.0,80,-99.99,,,-99.99,Homeseer,2013-01-02 10:52:00,
2013-01-02 05:57:00,11.9,8.6,29.73,North,-999,-999.0,-999.0,80,-99.99,,,-99.99,Homeseer,2013-01-02 10:57:00,
2013-01-02 06:02:00,12.0,8.7,29.73,North,-999,-999.0,-999.0,80,-99.99,,,-99.99,Homeseer,2013-01-02 11:02:00,
2013-01-02 06:07:00,12.3,8.8,29.73,North,-999,-999.0,-999.0,79,-99.99,,,-99.99,Homeseer,2013-01-02 11:07:00,
2013-01-02 06:12:00,12.6,9.2,29.73,North,-999,-999.0,-999.0,80,-99.99,,,-99.99,Homeseer,2013-01-02 11:12:00,
2013-01-02 06:17:00,13.3,9.9,29.72,North,-999,-999.0,-999.0,80,-99.99,,,-99.99,Homeseer,2013-01-02 11:17:00,
2013-01-02 06:22:00,13.6,10.2,29.73,North,-999,-999.0,-999.0,80,-99.99,,,-99.99,Homeseer,2013-01-02 11:22:00,
2013-01-02 06:27:00,13.7,10.1,29.72,North,-999,-999.0,-999.0,79,-99.99,,,-99.99,Homeseer,2013-01-02 11:27:00,
2013-01-02 06:32:00,13.4,9.8,29.73,North,-999,-999.0,-999.0,79,-99.99,,,-99.99,Homeseer,2013-01-02 11:32:00,
2013-01-02 06:37:00,13.4,9.8,29.73,North,-999,-999.0,-999.0,79,-99.99,,,-99.99,Homeseer,2013-01-02 11:37:00,
2013-01-02 06:42:00,13.3,9.7,29.72,North,-999,-999.0,-999.0,79,-99.99,,,-99.99,Homeseer,2013-01-02 11:42:00,
2013-01-02 06:47:00,13.6,10.0,29.72,North,-999,-999.0,-999.0,79,-99.99,,,-99.99,Homeseer,2013-01-02 11:47:00,
2013-01-02 06:52:00,13.4,10.6,29.72,North,-999,-999.0,-999.0,83,-99.99,,,-99.99,Homeseer,2013-01-02 11:52:00,
2013-01-02 06:57:00,13.8,10.4,29.71,North,-999,-999.0,-999.0,80,-99.99,,,-99.99,Homeseer,2013-01-02 11:57:00,
2013-01-02 07:02:00,13.7,10.1,29.71,North,-999,-999.0,-999.0,79,-99.99,,,-99.99,Homeseer,2013-01-02 12:02:00,
2013-01-02 07:07:00,13.4,9.8,29.72,North,-999,-999.0,-999.0,79,-99.99,,,-99.99,Homeseer,2013-01-02 12:07:00,
2013-01-02 07:12:00,13.2,9.6,29.72,North,-999,-999.0,-999.0,79,-99.99,,,-99.99,Homeseer,2013-01-02 12:12:00,
2013-01-02 07:17:00,12.9,9.5,29.71,North,-999,-999.0,-999.0,80,-99.99,,,-99.99,Homeseer,2013-01-02 12:17:00,
2013-01-02 07:22:00,12.8,9.8,29.71,North,-999,-999.0,-999.0,82,-99.99,,,-99.99,Homeseer,2013-01-02 12:22:00,
2013-01-02 07:27:00,13.4,10.2,29.71,North,-999,-999.0,-999.0,81,-99.99,,,-99.99,Homeseer,2013-01-02 12:27:00,
2013-01-02 07:32:00,14.0,10.6,29.71,North,-999,-999.0,-999.0,80,-99.99,,,-99.99,Homeseer,2013-01-02 12:32:00,
2013-01-02 07:37:00,14.9,11.3,29.71,North,-999,-999.0,-999.0,79,-99.99,,,-99.99,Homeseer,2013-01-02 12:37:00,
2013-01-02 07:42:00,15.7,11.7,29.71,North,-999,-999.0,-999.0,77,-99.99,,,-99.99,Homeseer,2013-01-02 12:42:00,
2013-01-02 07:45:00,16.0,12.0,29.72,North,-999,-999.0,-999.0,77,-99.99,,,-99.99,Homeseer,2013-01-02 12:45:00,
2013-01-02 07:50:00,16.0,12.0,29.71,North,-999,-999.0,-999.0,77,-99.99,,,-99.99,Homeseer,2013-01-02 12:50:00,
2013-01-02 07:55:00,16.2,11.8,29.72,North,-999,-999.0,-999.0,75,-99.99,,,-99.99,Homeseer,2013-01-02 12:55:00,
2013-01-02 08:00:00,16.7,12.4,29.71,North,-999,-999.0,-999.0,76,-99.99,,,-99.99,Homeseer,2013-01-02 13:00:00,
2013-01-02 08:05:00,16.7,12.4,29.71,North,-999,-999.0,-999.0,76,-99.99,,,-99.99,Homeseer,2013-01-02 13:05:00,
2013-01-02 08:10:00,17.2,12.7,29.71,North,-999,-999.0,-999.0,75,-99.99,,,-99.99,Homeseer,2013-01-02 13:10:00,
2013-01-02 08:15:00,17.7,13.2,29.71,North,-999,-999.0,-999.0,75,-99.99,,,-99.99,Homeseer,2013-01-02 13:15:00,
2013-01-02 08:20:00,18.5,13.4,29.71,North,-999,-999.0,-999.0,72,-99.99,,,-99.99,Homeseer,2013-01-02 13:20:00,
2013-01-02 08:25:00,19.4,14.2,29.71,North,-999,-999.0,-999.0,72,-99.99,,,-99.99,Homeseer,2013-01-02 13:25:00,
2013-01-02 08:30:00,20.0,14.1,29.70,North,-999,-999.0,-999.0,69,-99.99,,,-99.99,Homeseer,2013-01-02 13:30:00,
2013-01-02 08:35:00,20.9,15.0,29.71,North,-999,-999.0,-999.0,69,-99.99,,,-99.99,Homeseer,2013-01-02 13:35:00,
2013-01-02 08:40:00,21.4,15.0,29.71,North,-999,-999.0,-999.0,67,-99.99,,,-99.99,Homeseer,2013-01-02 13:40:00,
2013-01-02 08:45:00,21.9,15.5,29.71,North,-999,-999.0,-999.0,67,-99.99,,,-99.99,Homeseer,2013-01-02 13:45:00,
2013-01-02 08:50:00,22.3,15.4,29.71,North,-999,-999.0,-999.0,65,-99.99,,,-99.99,Homeseer,2013-01-02 13:50:00,
2013-01-02 08:55:00,22.9,15.7,29.71,North,-999,-999.0,-999.0,64,-99.99,,,-99.99,Homeseer,2013-01-02 13:55:00,
2013-01-02 09:00:00,23.1,16.4,29.71,North,-999,-999.0,-999.0,66,-99.99,,,-99.99,Homeseer,2013-01-02 14:00:00,
2013-01-02 09:05:00,22.9,15.7,29.72,North,-999,-999.0,-999.0,64,-99.99,,,-99.99,Homeseer,2013-01-02 14:05:00,
2013-01-02 09:10:00,22.8,15.9,29.72,North,-999,-999.0,-999.0,65,-99.99,,,-99.99,Homeseer,2013-01-02 14:10:00,
2013-01-02 09:15:00,23.1,16.2,29.73,North,-999,-999.0,-999.0,65,-99.99,,,-99.99,Homeseer,2013-01-02 14:15:00,
2013-01-02 09:20:00,23.6,16.6,29.73,North,-999,-999.0,-999.0,65,-99.99,,,-99.99,Homeseer,2013-01-02 14:20:00,
2013-01-02 09:25:00,23.7,16.5,29.73,North,-999,-999.0,-999.0,64,-99.99,,,-99.99,Homeseer,2013-01-02 14:25:00,
2013-01-02 09:30:00,23.8,16.6,29.73,North,-999,-999.0,-999.0,64,-99.99,,,-99.99,Homeseer,2013-01-02 14:30:00,
2013-01-02 09:35:00,23.8,16.6,29.74,North,-999,-999.0,-999.0,64,-99.99,,,-99.99,Homeseer,2013-01-02 14:35:00,
2013-01-02 09:40:00,24.5,17.2,29.74,North,-999,-999.0,-999.0,64,-99.99,,,-99.99,Homeseer,2013-01-02 14:40:00,
2013-01-02 09:45:00,24.9,17.9,29.75,North,-999,-999.0,-999.0,65,-99.99,,,-99.99,Homeseer,2013-01-02 14:45:00,
2013-01-02 09:50:00,25.0,17.7,29.75,North,-999,-999.0,-999.0,64,-99.99,,,-99.99,Homeseer,2013-01-02 14:50:00,
2013-01-02 09:55:00,25.8,17.7,29.74,North,-999,-999.0,-999.0,61,-99.99,,,-99.99,Homeseer,2013-01-02 14:55:00,
2013-01-02 10:00:00,25.7,18.1,29.74,North,-999,-999.0,-999.0,63,-99.99,,,-99.99,Homeseer,2013-01-02 15:00:00,
2013-01-02 10:05:00,25.8,18.0,29.74,North,-999,-999.0,-999.0,62,-99.99,,,-99.99,Homeseer,2013-01-02 15:05:00,
2013-01-02 10:10:00,25.9,18.1,29.74,North,-999,-999.0,-999.0,62,-99.99,,,-99.99,Homeseer,2013-01-02 15:10:00,
2013-01-02 10:15:00,26.4,18.8,29.74,North,-999,-999.0,-999.0,63,-99.99,,,-99.99,Homeseer,2013-01-02 15:15:00,
2013-01-02 10:20:00,26.5,18.6,29.74,North,-999,-999.0,-999.0,62,-99.99,,,-99.99,Homeseer,2013-01-02 15:20:00,
2013-01-02 10:25:00,26.7,18.8,29.74,North,-999,-999.0,-999.0,62,-99.99,,,-99.99,Homeseer,2013-01-02 15:25:00,
2013-01-02 10:30:00,27.2,19.0,29.73,North,-999,-999.0,-999.0,61,-99.99,,,-99.99,Homeseer,2013-01-02 15:30:00,
2013-01-02 10:35:00,27.3,19.1,29.73,North,-999,-999.0,-999.0,61,-99.99,,,-99.99,Homeseer,2013-01-02 15:35:00,
2013-01-02 10:40:00,27.7,19.8,29.73,North,-999,-999.0,-999.0,62,-99.99,,,-99.99,Homeseer,2013-01-02 15:40:00,
2013-01-02 10:45:00,28.2,20.2,29.72,North,-999,-999.0,-999.0,62,-99.99,,,-99.99,Homeseer,2013-01-02 15:45:00,
2013-01-02 10:50:00,27.8,19.3,29.72,North,-999,-999.0,-999.0,60,-99.99,,,-99.99,Homeseer,2013-01-02 15:50:00,
2013-01-02 10:55:00,29.0,20.7,29.72,North,-999,-999.0,-999.0,61,-99.99,,,-99.99,Homeseer,2013-01-02 15:55:00,
2013-01-02 11:00:00,29.2,20.4,29.71,North,-999,-999.0,-999.0,59,-99.99,,,-99.99,Homeseer,2013-01-02 16:00:00,
2013-01-02 11:05:00,29.1,20.8,29.71,North,-999,-999.0,-999.0,61,-99.99,,,-99.99,Homeseer,2013-01-02 16:05:00,
2013-01-02 11:10:00,29.5,20.9,29.71,North,-999,-999.0,-999.0,60,-99.99,,,-99.99,Homeseer,2013-01-02 16:10:00,
2013-01-02 11:15:00,29.4,20.8,29.70,North,-999,-999.0,-999.0,60,-99.99,,,-99.99,Homeseer,2013-01-02 16:15:00,
2013-01-02 11:20:00,29.8,21.5,29.70,North,-999,-999.0,-999.0,61,-99.99,,,-99.99,Homeseer,2013-01-02 16:20:00,
2013-01-02 11:25:00,29.8,20.6,29.70,North,-999,-999.0,-999.0,58,-99.99,,,-99.99,Homeseer,2013-01-02 16:25:00,
2013-01-02 11:30:00,29.4,20.5,29.70,North,-999,-999.0,-999.0,59,-99.99,,,-99.99,Homeseer,2013-01-02 16:30:00,
2013-01-02 11:35:00,29.9,21.0,29.69,North,-999,-999.0,-999.0,59,-99.99,,,-99.99,Homeseer,2013-01-02 16:35:00,
2013-01-02 11:40:00,30.5,21.3,29.69,North,-999,-999.0,-999.0,58,-99.99,,,-99.99,Homeseer,2013-01-02 16:40:00,
2013-01-02 11:45:00,31.3,22.0,29.69,North,-999,-999.0,-999.0,58,-99.99,,,-99.99,Homeseer,2013-01-02 16:45:00,
2013-01-02 11:50:00,31.2,22.0,29.69,North,-999,-999.0,-999.0,58,-99.99,,,-99.99,Homeseer,2013-01-02 16:50:00,
2013-01-02 11:55:00,30.9,21.4,29.69,North,-999,-999.0,-999.0,57,-99.99,,,-99.99,Homeseer,2013-01-02 16:55:00,
2013-01-02 12:00:00,30.1,20.9,29.68,North,-999,-999.0,-999.0,58,-99.99,,,-99.99,Homeseer,2013-01-02 17:00:00,
2013-01-02 12:06:00,30.8,22.1,29.69,North,-999,-999.0,-999.0,60,-99.99,,,-99.99,Homeseer,2013-01-02 17:06:00,
2013-01-02 12:11:00,30.1,21.7,29.68,North,-999,-999.0,-999.0,61,-99.99,,,-99.99,Homeseer,2013-01-02 17:11:00,
2013-01-02 12:16:00,30.4,21.5,29.69,North,-999,-999.0,-999.0,59,-99.99,,,-99.99,Homeseer,2013-01-02 17:16:00,
2013-01-02 12:21:00,30.0,20.8,29.68,North,-999,-999.0,-999.0,58,-99.99,,,-99.99,Homeseer,2013-01-02 17:21:00,
2013-01-02 12:26:00,30.1,21.5,29.68,North,-999,-999.0,-999.0,60,-99.99,,,-99.99,Homeseer,2013-01-02 17:26:00,
2013-01-02 12:31:00,30.1,21.5,29.68,North,-999,-999.0,-999.0,60,-99.99,,,-99.99,Homeseer,2013-01-02 17:31:00,
2013-01-02 12:36:00,30.4,21.8,29.69,North,-999,-999.0,-999.0,60,-99.99,,,-99.99,Homeseer,2013-01-02 17:36:00,
2013-01-02 12:41:00,30.8,21.9,29.68,North,-999,-999.0,-999.0,59,-99.99,,,-99.99,Homeseer,2013-01-02 17:41:00,
2013-01-02 12:46:00,30.8,21.9,29.68,North,-999,-999.0,-999.0,59,-99.99,,,-99.99,Homeseer,2013-01-02 17:46:00,
2013-01-02 12:51:00,30.5,21.3,29.68,North,-999,-999.0,-999.0,58,-99.99,,,-99.99,Homeseer,2013-01-02 17:51:00,
2013-01-02 12:56:00,30.9,22.0,29.67,North,-999,-999.0,-999.0,59,-99.99,,,-99.99,Homeseer,2013-01-02 17:56:00,
2013-01-02 13:01:00,31.0,22.0,29.68,North,-999,-999.0,-999.0,59,-99.99,,,-99.99,Homeseer,2013-01-02 18:01:00,
2013-01-02 13:06:00,31.3,21.8,29.67,North,-999,-999.0,-999.0,57,-99.99,,,-99.99,Homeseer,2013-01-02 18:06:00,
2013-01-02 13:11:00,31.4,21.9,29.68,North,-999,-999.0,-999.0,57,-99.99,,,-99.99,Homeseer,2013-01-02 18:11:00,
2013-01-02 13:16:00,31.3,22.3,29.68,North,-999,-999.0,-999.0,59,-99.99,,,-99.99,Homeseer,2013-01-02 18:16:00,
2013-01-02 13:21:00,31.6,22.9,29.68,North,-999,-999.0,-999.0,60,-99.99,,,-99.99,Homeseer,2013-01-02 18:21:00,
2013-01-02 13:26:00,31.2,22.5,29.68,North,-999,-999.0,-999.0,60,-99.99,,,-99.99,Homeseer,2013-01-02 18:26:00,
2013-01-02 13:31:00,30.9,22.2,29.69,North,-999,-999.0,-999.0,60,-99.99,,,-99.99,Homeseer,2013-01-02 18:31:00,
2013-01-02 13:36:00,31.1,22.4,29.68,North,-999,-999.0,-999.0,60,-99.99,,,-99.99,Homeseer,2013-01-02 18:36:00,
2013-01-02 13:41:00,30.9,22.5,29.69,North,-999,-999.0,-999.0,61,-99.99,,,-99.99,Homeseer,2013-01-02 18:41:00,
2013-01-02 13:46:00,31.0,22.9,29.69,North,-999,-999.0,-999.0,62,-99.99,,,-99.99,Homeseer,2013-01-02 18:46:00,
2013-01-02 13:51:00,30.8,22.1,29.69,North,-999,-999.0,-999.0,60,-99.99,,,-99.99,Homeseer,2013-01-02 18:51:00,
2013-01-02 13:56:00,30.9,23.0,29.70,North,-999,-999.0,-999.0,63,-99.99,,,-99.99,Homeseer,2013-01-02 18:56:00,
2013-01-02 14:01:00,30.3,21.9,29.70,North,-999,-999.0,-999.0,61,-99.99,,,-99.99,Homeseer,2013-01-02 19:01:00,
2013-01-02 14:06:00,30.3,23.5,29.70,North,-999,-999.0,-999.0,67,-99.99,,,-99.99,Homeseer,2013-01-02 19:06:00,
2013-01-02 14:11:00,30.2,23.4,29.71,North,-999,-999.0,-999.0,67,-99.99,,,-99.99,Homeseer,2013-01-02 19:11:00,
2013-01-02 14:16:00,29.8,23.0,29.71,North,-999,-999.0,-999.0,67,-99.99,,,-99.99,Homeseer,2013-01-02 19:16:00,
2013-01-02 14:21:00,30.1,23.5,29.71,North,-999,-999.0,-999.0,68,-99.99,,,-99.99,Homeseer,2013-01-02 19:21:00,
2013-01-02 14:26:00,29.4,23.1,29.71,North,-999,-999.0,-999.0,69,-99.99,,,-99.99,Homeseer,2013-01-02 19:26:00,
2013-01-02 14:31:00,29.9,23.4,29.72,North,-999,-999.0,-999.0,68,-99.99,,,-99.99,Homeseer,2013-01-02 19:31:00,
2013-01-02 14:36:00,29.6,24.0,29.74,North,-999,-999.0,-999.0,72,-99.99,,,-99.99,Homeseer,2013-01-02 19:36:00,
2013-01-02 14:41:00,29.4,24.5,29.75,North,-999,-999.0,-999.0,75,-99.99,,,-99.99,Homeseer,2013-01-02 19:41:00,
2013-01-02 14:46:00,29.0,24.1,29.74,North,-999,-999.0,-999.0,75,-99.99,,,-99.99,Homeseer,2013-01-02 19:46:00,
2013-01-02 14:51:00,28.6,24.2,29.74,North,-999,-999.0,-999.0,77,-99.99,,,-99.99,Homeseer,2013-01-02 19:51:00,
2013-01-02 14:56:00,28.6,24.4,29.74,North,-999,-999.0,-999.0,78,-99.99,,,-99.99,Homeseer,2013-01-02 19:56:00,
2013-01-02 15:01:00,28.6,24.0,29.74,North,-999,-999.0,-999.0,76,-99.99,,,-99.99,Homeseer,2013-01-02 20:01:00,
2013-01-02 15:06:00,28.6,23.7,29.75,North,-999,-999.0,-999.0,75,-99.99,,,-99.99,Homeseer,2013-01-02 20:06:00,
2013-01-02 15:11:00,28.7,24.7,29.77,North,-999,-999.0,-999.0,79,-99.99,,,-99.99,Homeseer,2013-01-02 20:11:00,
2013-01-02 15:16:00,28.6,25.0,29.77,North,-999,-999.0,-999.0,81,-99.99,,,-99.99,Homeseer,2013-01-02 20:16:00,
2013-01-02 15:21:00,28.3,23.4,29.77,North,-999,-999.0,-999.0,75,-99.99,,,-99.99,Homeseer,2013-01-02 20:21:00,
2013-01-02 15:26:00,28.1,23.2,29.78,North,-999,-999.0,-999.0,75,-99.99,,,-99.99,Homeseer,2013-01-02 20:26:00,
2013-01-02 15:31:00,28.1,22.6,29.78,North,-999,-999.0,-999.0,72,-99.99,,,-99.99,Homeseer,2013-01-02 20:31:00,
2013-01-02 15:36:00,28.1,22.3,29.78,North,-999,-999.0,-999.0,71,-99.99,,,-99.99,Homeseer,2013-01-02 20:36:00,
2013-01-02 15:41:00,27.7,21.5,29.78,North,-999,-999.0,-999.0,69,-99.99,,,-99.99,Homeseer,2013-01-02 20:41:00,
2013-01-02 15:46:00,27.8,21.3,29.78,North,-999,-999.0,-999.0,68,-99.99,,,-99.99,Homeseer,2013-01-02 20:46:00,
2013-01-02 15:51:00,27.6,21.2,29.78,North,-999,-999.0,-999.0,68,-99.99,,,-99.99,Homeseer,2013-01-02 20:51:00,
2013-01-02 15:56:00,27.2,20.0,29.79,North,-999,-999.0,-999.0,65,-99.99,,,-99.99,Homeseer,2013-01-02 20:56:00,
2013-01-02 16:01:00,27.4,20.5,29.80,North,-999,-999.0,-999.0,66,-99.99,,,-99.99,Homeseer,2013-01-02 21:01:00,
2013-01-02 16:06:00,27.3,20.1,29.80,North,-999,-999.0,-999.0,65,-99.99,,,-99.99,Homeseer,2013-01-02 21:06:00,
2013-01-02 16:11:00,27.5,20.3,29.81,North,-999,-999.0,-999.0,65,-99.99,,,-99.99,Homeseer,2013-01-02 21:11:00,
2013-01-02 16:16:00,27.4,20.2,29.82,North,-999,-999.0,-999.0,65,-99.99,,,-99.99,Homeseer,2013-01-02 21:16:00,
2013-01-02 16:21:00,26.5,19.4,29.81,North,-999,-999.0,-999.0,65,-99.99,,,-99.99,Homeseer,2013-01-02 21:21:00,
2013-01-02 16:26:00,26.6,20.0,29.81,North,-999,-999.0,-999.0,67,-99.99,,,-99.99,Homeseer,2013-01-02 21:26:00,
2013-01-02 16:31:00,26.4,19.5,29.81,North,-999,-999.0,-999.0,66,-99.99,,,-99.99,Homeseer,2013-01-02 21:31:00,
2013-01-02 16:36:00,26.0,19.4,29.81,North,-999,-999.0,-999.0,67,-99.99,,,-99.99,Homeseer,2013-01-02 21:36:00,
2013-01-02 16:41:00,26.0,18.9,29.82,North,-999,-999.0,-999.0,65,-99.99,,,-99.99,Homeseer,2013-01-02 21:41:00,
2013-01-02 16:46:00,25.7,19.1,29.83,North,-999,-999.0,-999.0,67,-99.99,,,-99.99,Homeseer,2013-01-02 21:46:00,
2013-01-02 16:51:00,25.8,19.0,29.83,North,-999,-999.0,-999.0,66,-99.99,,,-99.99,Homeseer,2013-01-02 21:51:00,
2013-01-02 16:56:00,25.7,19.1,29.83,North,-999,-999.0,-999.0,67,-99.99,,,-99.99,Homeseer,2013-01-02 21:56:00,
2013-01-02 17:01:00,25.7,19.1,29.84,North,-999,-999.0,-999.0,67,-99.99,,,-99.99,Homeseer,2013-01-02 22:01:00,
2013-01-02 17:06:00,25.6,19.0,29.84,North,-999,-999.0,-999.0,67,-99.99,,,-99.99,Homeseer,2013-01-02 22:06:00,
2013-01-02 17:11:00,25.4,18.8,29.84,North,-999,-999.0,-999.0,67,-99.99,,,-99.99,Homeseer,2013-01-02 22:11:00,
2013-01-02 17:16:00,25.4,17.8,29.85,North,-999,-999.0,-999.0,63,-99.99,,,-99.99,Homeseer,2013-01-02 22:16:00,
2013-01-02 17:21:00,25.2,17.7,29.85,North,-999,-999.0,-999.0,63,-99.99,,,-99.99,Homeseer,2013-01-02 22:21:00,
2013-01-02 17:26:00,24.9,17.6,29.85,North,-999,-999.0,-999.0,64,-99.99,,,-99.99,Homeseer,2013-01-02 22:26:00,
2013-01-02 17:31:00,25.0,18.2,29.85,North,-999,-999.0,-999.0,66,-99.99,,,-99.99,Homeseer,2013-01-02 22:31:00,
2013-01-02 17:36:00,24.9,18.1,29.85,North,-999,-999.0,-999.0,66,-99.99,,,-99.99,Homeseer,2013-01-02 22:36:00,
2013-01-02 17:41:00,24.5,17.7,29.86,North,-999,-999.0,-999.0,66,-99.99,,,-99.99,Homeseer,2013-01-02 22:41:00,
2013-01-02 17:46:00,24.1,17.6,29.86,North,-999,-999.0,-999.0,67,-99.99,,,-99.99,Homeseer,2013-01-02 22:46:00,
2013-01-02 17:51:00,23.4,17.2,29.86,North,-999,-999.0,-999.0,68,-99.99,,,-99.99,Homeseer,2013-01-02 22:51:00,
2013-01-02 17:56:00,23.4,16.4,29.86,North,-999,-999.0,-999.0,65,-99.99,,,-99.99,Homeseer,2013-01-02 22:56:00,
2013-01-02 18:01:00,23.4,16.7,29.87,North,-999,-999.0,-999.0,66,-99.99,,,-99.99,Homeseer,2013-01-02 23:01:00,
2013-01-02 18:06:00,23.1,16.2,29.87,North,-999,-999.0,-999.0,65,-99.99,,,-99.99,Homeseer,2013-01-02 23:06:00,
2013-01-02 18:11:00,23.0,16.3,29.87,North,-999,-999.0,-999.0,66,-99.99,,,-99.99,Homeseer,2013-01-02 23:11:00,
2013-01-02 18:16:00,22.9,15.7,29.88,North,-999,-999.0,-999.0,64,-99.99,,,-99.99,Homeseer,2013-01-02 23:16:00,
2013-01-02 18:21:00,23.1,15.9,29.88,North,-999,-999.0,-999.0,64,-99.99,,,-99.99,Homeseer,2013-01-02 23:21:00,
2013-01-02 18:26:00,23.1,15.7,29.89,North,-999,-999.0,-999.0,63,-99.99,,,-99.99,Homeseer,2013-01-02 23:26:00,
2013-01-02 18:31:00,22.8,15.4,29.88,North,-999,-999.0,-999.0,63,-99.99,,,-99.99,Homeseer,2013-01-02 23:31:00,
2013-01-02 18:36:00,22.4,15.3,29.88,North,-999,-999.0,-999.0,64,-99.99,,,-99.99,Homeseer,2013-01-02 23:36:00,
2013-01-02 18:41:00,22.4,15.3,29.88,North,-999,-999.0,-999.0,64,-99.99,,,-99.99,Homeseer,2013-01-02 23:41:00,
2013-01-02 18:46:00,22.6,15.4,29.89,North,-999,-999.0,-999.0,64,-99.99,,,-99.99,Homeseer,2013-01-02 23:46:00,
2013-01-02 18:51:00,22.2,14.8,29.89,North,-999,-999.0,-999.0,63,-99.99,,,-99.99,Homeseer,2013-01-02 23:51:00,
2013-01-02 18:56:00,22.3,14.7,29.90,North,-999,-999.0,-999.0,62,-99.99,,,-99.99,Homeseer,2013-01-02 23:56:00,
2013-01-02 19:01:00,22.2,14.8,29.89,North,-999,-999.0,-999.0,63,-99.99,,,-99.99,Homeseer,2013-01-03 00:01:00,
2013-01-02 19:06:00,22.0,14.6,29.89,North,-999,-999.0,-999.0,63,-99.99,,,-99.99,Homeseer,2013-01-03 00:06:00,
2013-01-02 19:11:00,22.0,14.9,29.91,North,-999,-999.0,-999.0,64,-99.99,,,-99.99,Homeseer,2013-01-03 00:11:00,
2013-01-02 19:16:00,22.0,14.9,29.90,North,-999,-999.0,-999.0,64,-99.99,,,-99.99,Homeseer,2013-01-03 00:16:00,
2013-01-02 19:21:00,21.4,14.3,29.89,North,-999,-999.0,-999.0,64,-99.99,,,-99.99,Homeseer,2013-01-03 00:21:00,
2013-01-02 19:26:00,21.3,14.2,29.90,North,-999,-999.0,-999.0,64,-99.99,,,-99.99,Homeseer,2013-01-03 00:26:00,
2013-01-02 19:31:00,21.3,14.0,29.91,North,-999,-999.0,-999.0,63,-99.99,,,-99.99,Homeseer,2013-01-03 00:31:00,
2013-01-02 19:37:00,21.3,14.5,29.91,North,-999,-999.0,-999.0,65,-99.99,,,-99.99,Homeseer,2013-01-03 00:37:00,
2013-01-02 19:43:00,20.6,14.0,29.91,North,-999,-999.0,-999.0,66,-99.99,,,-99.99,Homeseer,2013-01-03 00:43:00,
2013-01-02 19:48:00,20.6,14.0,29.91,North,-999,-999.0,-999.0,66,-99.99,,,-99.99,Homeseer,2013-01-03 00:48:00,
2013-01-02 19:53:00,20.3,13.7,29.91,North,-999,-999.0,-999.0,66,-99.99,,,-99.99,Homeseer,2013-01-03 00:53:00,
2013-01-02 19:58:00,20.1,13.8,29.91,North,-999,-999.0,-999.0,67,-99.99,,,-99.99,Homeseer,2013-01-03 00:58:00,
2013-01-02 20:03:00,19.7,12.9,29.91,North,-999,-999.0,-999.0,65,-99.99,,,-99.99,Homeseer,2013-01-03 01:03:00,
2013-01-02 20:08:00,20.2,13.6,29.91,North,-999,-999.0,-999.0,66,-99.99,,,-99.99,Homeseer,2013-01-03 01:08:00,
2013-01-02 20:13:00,19.4,13.3,29.91,North,-999,-999.0,-999.0,68,-99.99,,,-99.99,Homeseer,2013-01-03 01:13:00,
2013-01-02 20:18:00,19.4,13.6,29.92,North,-999,-999.0,-999.0,69,-99.99,,,-99.99,Homeseer,2013-01-03 01:18:00,
2013-01-02 20:23:00,19.6,13.3,29.92,North,-999,-999.0,-999.0,67,-99.99,,,-99.99,Homeseer,2013-01-03 01:23:00,
2013-01-02 20:28:00,19.5,13.4,29.93,North,-999,-999.0,-999.0,68,-99.99,,,-99.99,Homeseer,2013-01-03 01:28:00,
2013-01-02 20:33:00,19.2,13.1,29.93,North,-999,-999.0,-999.0,68,-99.99,,,-99.99,Homeseer,2013-01-03 01:33:00,
2013-01-02 20:38:00,18.7,12.9,29.93,North,-999,-999.0,-999.0,69,-99.99,,,-99.99,Homeseer,2013-01-03 01:38:00,
2013-01-02 20:43:00,17.9,12.3,29.94,North,-999,-999.0,-999.0,70,-99.99,,,-99.99,Homeseer,2013-01-03 01:43:00,
2013-01-02 20:48:00,17.4,11.9,29.94,North,-999,-999.0,-999.0,70,-99.99,,,-99.99,Homeseer,2013-01-03 01:48:00,
2013-01-02 20:53:00,17.4,11.9,29.95,North,-999,-999.0,-999.0,70,-99.99,,,-99.99,Homeseer,2013-01-03 01:53:00,
2013-01-02 20:58:00,16.9,11.4,29.94,North,-999,-999.0,-999.0,70,-99.99,,,-99.99,Homeseer,2013-01-03 01:58:00,
2013-01-02 21:03:00,17.2,11.5,29.95,North,-999,-999.0,-999.0,69,-99.99,,,-99.99,Homeseer,2013-01-03 02:03:00,
2013-01-02 21:08:00,17.2,10.8,29.95,North,-999,-999.0,-999.0,66,-99.99,,,-99.99,Homeseer,2013-01-03 02:08:00,
2013-01-02 21:13:00,17.3,11.1,29.95,North,-999,-999.0,-999.0,67,-99.99,,,-99.99,Homeseer,2013-01-03 02:13:00,
2013-01-02 21:18:00,17.2,11.0,29.96,North,-999,-999.0,-999.0,67,-99.99,,,-99.99,Homeseer,2013-01-03 02:18:00,
2013-01-02 21:23:00,17.2,11.0,29.96,North,-999,-999.0,-999.0,67,-99.99,,,-99.99,Homeseer,2013-01-03 02:23:00,
2013-01-02 21:28:00,16.8,10.2,29.97,North,-999,-999.0,-999.0,65,-99.99,,,-99.99,Homeseer,2013-01-03 02:28:00,
2013-01-02 21:33:00,16.7,10.3,29.97,North,-999,-999.0,-999.0,66,-99.99,,,-99.99,Homeseer,2013-01-03 02:33:00,
2013-01-02 21:38:00,16.6,10.4,29.97,North,-999,-999.0,-999.0,67,-99.99,,,-99.99,Homeseer,2013-01-03 02:38:00,
2013-01-02 21:43:00,16.2,10.1,29.98,North,-999,-999.0,-999.0,67,-99.99,,,-99.99,Homeseer,2013-01-03 02:43:00,
2013-01-02 21:48:00,16.2,9.6,29.98,North,-999,-999.0,-999.0,65,-99.99,,,-99.99,Homeseer,2013-01-03 02:48:00,
2013-01-02 21:53:00,16.1,10.0,29.97,North,-999,-999.0,-999.0,67,-99.99,,,-99.99,Homeseer,2013-01-03 02:53:00,
2013-01-02 21:58:00,15.8,9.9,29.98,North,-999,-999.0,-999.0,68,-99.99,,,-99.99,Homeseer,2013-01-03 02:58:00,
2013-01-02 22:03:00,15.5,9.6,29.98,North,-999,-999.0,-999.0,68,-99.99,,,-99.99,Homeseer,2013-01-03 03:03:00,
2013-01-02 22:08:00,14.8,8.7,29.97,North,-999,-999.0,-999.0,67,-99.99,,,-99.99,Homeseer,2013-01-03 03:08:00,
2013-01-02 22:13:00,14.8,8.7,29.98,North,-999,-999.0,-999.0,67,-99.99,,,-99.99,Homeseer,2013-01-03 03:13:00,
2013-01-02 22:18:00,14.6,8.3,29.98,North,-999,-999.0,-999.0,66,-99.99,,,-99.99,Homeseer,2013-01-03 03:18:00,
2013-01-02 22:23:00,14.6,8.5,29.99,North,-999,-999.0,-999.0,67,-99.99,,,-99.99,Homeseer,2013-01-03 03:23:00,
2013-01-02 22:28:00,14.7,8.2,29.99,North,-999,-999.0,-999.0,65,-99.99,,,-99.99,Homeseer,2013-01-03 03:28:00,
2013-01-02 22:34:00,14.1,7.6,29.99,North,-999,-999.0,-999.0,65,-99.99,,,-99.99,Homeseer,2013-01-03 03:34:00,
2013-01-02 22:41:00,14.3,7.8,29.98,North,-999,-999.0,-999.0,65,-99.99,,,-99.99,Homeseer,2013-01-03 03:41:00,
2013-01-02 22:47:00,14.2,7.5,29.98,North,-999,-999.0,-999.0,64,-99.99,,,-99.99,Homeseer,2013-01-03 03:47:00,
2013-01-02 22:52:00,14.1,7.6,29.98,North,-999,-999.0,-999.0,65,-99.99,,,-99.99,Homeseer,2013-01-03 03:52:00,
2013-01-02 22:57:00,13.6,7.1,29.99,North,-999,-999.0,-999.0,65,-99.99,,,-99.99,Homeseer,2013-01-03 03:57:00,
2013-01-02 23:02:00,13.4,6.9,29.99,North,-999,-999.0,-999.0,65,-99.99,,,-99.99,Homeseer,2013-01-03 04:02:00,
2013-01-02 23:07:00,13.0,6.3,29.99,North,-999,-999.0,-999.0,64,-99.99,,,-99.99,Homeseer,2013-01-03 04:07:00,
2013-01-02 23:12:00,13.3,6.2,30.00,North,-999,-999.0,-999.0,62,-99.99,,,-99.99,Homeseer,2013-01-03 04:12:00,
2013-01-02 23:17:00,13.1,6.7,29.99,North,-999,-999.0,-999.0,65,-99.99,,,-99.99,Homeseer,2013-01-03 04:17:00,
2013-01-02 23:22:00,13.1,6.4,30.00,North,-999,-999.0,-999.0,64,-99.99,,,-99.99,Homeseer,2013-01-03 04:22:00,
2013-01-02 23:27:00,12.8,6.6,29.99,North,-999,-999.0,-999.0,66,-99.99,,,-99.99,Homeseer,2013-01-03 04:27:00,
2013-01-02 23:32:00,12.8,5.9,30.00,North,-999,-999.0,-999.0,63,-99.99,,,-99.99,Homeseer,2013-01-03 04:32:00,
2013-01-02 23:37:00,12.8,6.4,29.99,North,-999,-999.0,-999.0,65,-99.99,,,-99.99,Homeseer,2013-01-03 04:37:00,
2013-01-02 23:42:00,12.5,5.9,30.00,North,-999,-999.0,-999.0,64,-99.99,,,-99.99,Homeseer,2013-01-03 04:42:00,
2013-01-02 23:47:00,12.2,5.8,29.99,North,-999,-999.0,-999.0,65,-99.99,,,-99.99,Homeseer,2013-01-03 04:47:00,
2013-01-02 23:52:00,12.0,5.4,29.99,North,-999,-999.0,-999.0,64,-99.99,,,-99.99,Homeseer,2013-01-03 04:52:00,
2013-01-02 23:57:00,11.8,5.2,29.99,North,-999,-999.0,-999.0,64,-99.99,,,-99.99,Homeseer,2013-01-03 04:57:00,